CAPE
0 0 0 0 0 0 0 0 1 0 0 0 0 0 43 255 416 388 268 138 99 77 39 62 37 4 19 43 6 22 14 111 277 335 384 406 466 316 508 597 600 445 765 741
0 0 0 0 0 0 0 0 0 24 7 0 0 3 194 290 397 395 362 205 130 121 110 117 90 24 0 32 25 66 49 42 173 369 439 319 376 318 547 678 674 823 895 525
0 0 0 0 0 0 0 0 0 9 13 55 45 0 239 314 508 576 418 270 184 152 135 134 90 38 6 11 75 95 71 78 124 512 339 406 382 325 513 647 708 905 826 695
0 0 0 0 0 0 0 0 0 0 0 0 0 0 12 303 544 582 500 380 230 156 143 120 69 29 46 49 99 134 129 81 187 518 275 389 486 266 295 560 681 770 845 786
0 0 0 0 0 0 0 0 0 0 0 0 0 0 0 62 380 424 508 470 288 228 191 164 131 71 87 52 78 225 169 160 233 505 345 264 346 413 282 500 637 734 931 1012
0 0 0 0 0 0 0 0 0 0 0 0 0 0 0 109 225 197 161 483 412 310 249 209 186 142 103 96 64 229 188 186 201 201 260 221 214 309 304 372 625 733 897 997
0 0 0 0 0 0 0 0 0 0 0 0 0 0 0 0 0 37 130 122 365 410 286 257 281 223 184 131 78 139 150 192 180 128 170 68 36 304 276 248 318 509 568 817
0 0 0 0 0 0 0 0 0 0 0 0 0 0 0 0 0 0 7 53 77 373 339 43 168 290 250 205 145 101 143 128 201 190 39 0 0 71 312 293 88 260 503 696
0 0 0 0 0 0 0 0 0 0 0 0 0 0 0 0 0 0 1 10 22 37 77 119 65 182 228 208 227 144 142 80 233 212 166 28 0 0 62 197 270 256 396 568
0 0 0 0 0 0 0 0 0 0 0 0 0 0 0 0 0 0 11 29 16 22 66 173 140 178 239 199 196 233 192 151 185 240 192 109 13 0 0 19 100 244 414 523
0 0 0 0 0 0 0 0 0 0 0 0 0 0 0 0 0 0 0 0 15 57 15 64 216 156 154 199 191 174 165 272 183 215 180 190 104 9 0 0 9 231 353 539
0 0 0 0 0 0 0 0 0 0 0 0 0 0 0 0 0 0 0 0 55 246 52 0 1 201 229 398 320 240 181 190 247 263 260 258 193 90 3 0 0 28 401 613
0 0 0 0 0 0 0 0 0 0 0 0 0 0 0 0 0 0 20 53 35 336 179 116 9 3 162 350 475 443 416 295 201 189 240 293 267 203 115 9 0 0 7 159
0 0 0 0 0 0 0 0 0 0 0 0 0 0 0 0 0 0 13 17 15 104 462 341 249 117 138 189 354 359 377 414 367 242 205 266 313 286 197 97 1 0 0 19
0 0 0 0 0 0 0 0 0 0 0 0 0 0 0 0 0 0 0 12 45 20 12 263 492 408 342 244 216 217 224 283 312 344 239 215 252 276 268 162 101 0 0 0
0 0 0 0 0 0 0 0 0 0 0 0 0 0 0 0 0 0 0 0 20 41 4 51 138 455 447 493 379 285 233 237 244 282 316 304 305 241 249 242 185 154 75 3
0 0 0 0 0 0 0 0 0 0 0 0 0 0 0 0 0 0 0 0 0 104 0 4 15 257 386 346 470 508 434 357 370 335 336 310 254 263 258 232 212 186 191 110
0 0 0 0 0 0 0 0 0 0 0 0 0 0 0 0 0 0 0 0 0 0 84 13 29 128 112 421 368 246 363 323 328 285 388 404 422 343 323 288 280 304 273 242
0 0 0 0 0 0 0 0 0 0 0 0 0 0 0 0 0 0 0 0 0 0 0 87 155 79 113 84 360 332 327 244 223 376 465 451 443 555 567 466 458 422 406 388
0 0 0 0 0 0 0 0 0 0 0 0 0 0 0 0 0 0 5 2 1 0 0 0 107 131 80 51 20 114 161 222 239 233 503 636 883 692 690 602 566 531 566 469
0 0 0 0 0 0 0 0 0 0 0 0 0 0 0 0 0 0 31 41 0 23 5 1 0 117 113 0 2 36 124 94 207 232 213 293 400 682 906 1231 987 792 749 894
0 0 0 0 0 0 0 0 0 0 0 0 0 0 0 0 0 0 0 37 37 0 0 1 0 0 0 3 3 12 161 111 187 151 100 89 106 237 308 760 1074 1134 875 972
0 0 0 0 0 0 0 0 0 0 0 0 0 0 0 0 0 0 0 7 70 9 8 24 2 0 0 0 4 0 1 0 0 106 0 26 62 76 538 278 516 1122 1041 1090
0 0 0 0 0 0 0 0 0 0 0 0 0 0 0 0 0 0 0 0 13 34 0 11 15 0 0 0 0 0 0 0 0 0 0 0 1 41 63 384 603 714 1451 1216
0 0 0 0 0 0 0 0 0 0 0 0 0 0 0 0 0 0 0 0 0 17 7 0 0 3 4 0 0 0 0 1 0 0 0 0 0 0 4 3 438 1027 1515 1407
0 0 0 0 0 0 0 0 0 0 0 0 0 0 0 0 0 0 0 0 0 0 1 0 0 0 0 0 0 0 0 0 0 2 0 0 0 0 0 0 42 706 1357 1508
CIN
-0 -0 -0 -0 -0 -0 -0 -0 -1 -0 -0 -0 -0 -1 -165 -182 -113 -127 -157 -131 -104 -75 -65 -50 -56 -73 -223 -218 -176 -211 -168 -99 -83 -94 -41 -28 -39 -37 -24 -39 -9 -34 -26 -36
-0 -0 -0 -0 -0 -0 -0 -0 -0 -0 -1 -0 -0 -39 -213 -199 -161 -141 -173 -124 -90 -73 -55 -37 -32 -45 -0 -177 -217 -187 -155 -30 -80 -59 -71 -51 -42 -35 -76 -43 -28 -89 -27 -27
-0 -0 -0 -0 -0 -0 -0 -0 -0 -1 -1 -124 -131 -0 -179 -188 -148 -105 -114 -117 -109 -79 -63 -33 -26 -46 -37 -67 -139 -186 -164 -77 -75 -56 -63 -63 -37 -32 -49 -45 -36 -31 -33 -35
-0 -0 -0 -0 -0 -0 -0 -0 -0 -0 -0 -0 -0 -0 -41 -149 -125 -111 -101 -112 -137 -106 -68 -44 -41 -41 -68 -216 -165 -216 -166 -142 -125 -40 -64 -76 -65 -48 -91 -54 -45 -38 -46 -21
-0 -0 -0 -0 -0 -0 -0 -0 -0 -0 -0 -0 -0 -0 -0 -61 -171 -179 -153 -120 -143 -115 -94 -69 -46 -28 -18 -146 -171 -4 -172 -148 -97 -41 -33 -67 -71 -51 -74 -51 -47 -44 -33 -22
-0 -0 -0 -0 -0 -0 -0 -0 -0 -0 -0 -0 -0 -0 -0 -212 -214 -230 -220 -134 -128 -124 -116 -73 -59 -31 -28 -22 -31 -6 -195 -171 -109 -130 -57 -68 -109 -69 -56 -53 -44 -44 -32 -25
-0 -0 -0 -0 -0 -0 -0 -0 -0 -0 -0 -0 -0 -0 -0 -0 -0 -308 -254 -187 -118 -98 -109 -105 -90 -84 -52 -21 -31 -26 -75 -189 -142 -113 -118 -120 -144 -100 -80 -62 -56 -44 -29 -47
-0 -0 -0 -0 -0 -0 -0 -0 -0 -0 -0 -0 -0 -0 -0 -0 -0 -0 -419 -302 -228 -95 -72 -235 -158 -112 -101 -56 -27 -39 -16 -203 -146 -29 -106 -0 -0 -143 -105 -91 -107 -99 -30 -145
-0 -0 -0 -0 -0 -0 -0 -0 -0 -0 -0 -0 -0 -0 -0 -0 -0 -0 -15 -271 -260 -233 -123 -45 -174 -135 -100 -95 -71 -47 -25 -119 -24 -21 -22 -55 -4 -0 -144 -135 -111 -256 -85 -119
-0 -0 -0 -0 -0 -0 -0 -0 -0 -0 -0 -0 -0 -0 -0 -0 -0 -0 -266 -249 -119 -225 -298 -308 -169 -211 -135 -104 -78 -50 -36 -40 -22 -15 -16 -19 -25 -0 -0 -116 -153 -179 -174 -67
-0 -0 -0 -0 -0 -0 -0 -0 -0 -0 -0 -0 -0 -0 -0 -0 -0 -0 -0 -0 -273 -363 -409 -306 -280 -271 -92 -94 -107 -62 -50 -34 -36 -11 -14 -13 -24 -47 -0 -0 -104 -282 -234 -82
-0 -0 -0 -0 -0 -0 -0 -0 -0 -0 -0 -0 -0 -0 -0 -0 -0 -0 -0 -0 -282 -271 -300 -7 -19 -258 -167 -81 -102 -115 -72 -45 -51 -32 -5 -8 -13 -22 -60 -0 -0 -77 -247 -106
-0 -0 -0 -0 -0 -0 -0 -0 -0 -0 -0 -0 -0 -0 -0 -0 -0 -0 -182 -174 -169 -149 -261 -446 -330 -133 -321 -166 -77 -92 -74 -45 -24 -41 -12 -5 -4 -13 -37 -36 -0 -0 -135 -289
-0 -0 -0 -0 -0 -0 -0 -0 -0 -0 -0 -0 -0 -0 -0 -0 -0 -0 -135 -249 -223 -157 -102 -200 -274 -388 -391 -293 -123 -109 -105 -88 -56 -50 -34 -25 -8 -3 -18 -36 -2 -0 -0 -374
-0 -0 -0 -0 -0 -0 -0 -0 -0 -0 -0 -0 -0 -0 -0 -0 -0 -0 -0 -73 -156 -227 -74 -122 -91 -144 -202 -251 -221 -182 -168 -141 -79 -66 -68 -65 -40 -9 -2 -17 -31 -0 -0 -0
-0 -0 -0 -0 -0 -0 -0 -0 -0 -0 -0 -0 -0 -0 -0 -0 -0 -0 -0 -0 -49 -90 -0 -146 -126 -59 -90 -117 -147 -164 -154 -161 -84 -79 -67 -54 -48 -49 -17 -20 -34 -33 -52 -283
-0 -0 -0 -0 -0 -0 -0 -0 -0 -0 -0 -0 -0 -0 -0 -0 -0 -0 -0 -0 -0 -15 -1 -18 -128 -74 -56 -121 -102 -99 -109 -110 -94 -81 -83 -74 -107 -91 -61 -25 -26 -36 -38 -50
-0 -0 -0 -0 -0 -0 -0 -0 -0 -0 -0 -0 -0 -0 -0 -0 -0 -0 -0 -0 -0 -0 -17 -21 -71 -58 -94 -33 -71 -147 -108 -123 -111 -199 -179 -122 -87 -100 -88 -78 -55 -40 -35 -35
-0 -0 -0 -0 -0 -0 -0 -0 -0 -0 -0 -0 -0 -0 -0 -0 -0 -0 -0 -0 -0 -0 -0 -4 -0 -30 -53 -78 -4 -28 -83 -110 -176 -137 -121 -121 -120 -94 -77 -74 -67 -45 -27 -34
-0 -0 -0 -0 -0 -0 -0 -0 -0 -0 -0 -0 -0 -0 -0 -0 -0 -0 -0 -0 -26 -0 -0 -0 -1 -4 -17 -35 -74 -35 -35 -83 -105 -119 -57 -23 -38 -82 -93 -113 -115 -95 -67 -52
-0 -0 -0 -0 -0 -0 -0 -0 -0 -0 -0 -0 -0 -0 -0 -0 -0 -0 -2 -1 -0 -25 -23 -0 -0 -5 -3 -0 -0 -22 -2 -43 -41 -48 -64 -43 -43 -49 -60 -30 -58 -98 -84 -58
-0 -0 -0 -0 -0 -0 -0 -0 -0 -0 -0 -0 -0 -0 -0 -0 -0 -0 -0 -7 -0 -0 -0 -29 -0 -0 -0 -24 -8 -30 -0 -6 -13 -44 -18 -43 -59 -91 -100 -55 -52 -62 -83 -64
-0 -0 -0 -0 -0 -0 -0 -0 -0 -0 -0 -0 -0 -0 -0 -0 -0 -0 -0 -1 -7 -5 -9 -13 -12 -0 -0 -0 -63 -0 -0 -0 -0 -35 -0 -62 -17 -22 -7 -160 -130 -49 -70 -69
-0 -0 -0 -0 -0 -0 -0 -0 -0 -0 -0 -0 -0 -0 -0 -0 -0 -0 -0 -0 -18 -15 -1 -13 -23 -2 -0 -0 -0 -0 -0 -0 -0 -0 -0 -0 -9 -22 -41 -100 -99 -108 -24 -64
-0 -0 -0 -0 -0 -0 -0 -0 -0 -0 -0 -0 -0 -0 -0 -0 -0 -0 -0 -0 -0 -23 -24 -0 -0 -8 -1 -0 -0 -0 -0 -1 -0 -0 -0 -0 -0 -0 -4 -23 -41 -41 -36 -74
-0 -0 -0 -0 -0 -0 -0 -0 -0 -0 -0 -0 -0 -0 -0 -0 -0 -0 -0 -0 -0 -0 -12 -0 -0 -0 -0 -0 -0 -0 -0 -0 -0 -6 -0 -0 -0 -0 -0 -1 -30 -59 -47 -58
Wind_Speed
nan nan nan nan nan nan nan nan nan nan nan nan nan nan nan 12 15 8 7 3 nan nan nan nan nan nan nan nan nan nan nan 7 7 12 9 9 11 10 12 13 12 14 15 15
nan nan nan nan nan nan nan nan nan nan nan nan nan nan 21 19 13 8 2 3 7 2 2 1 nan nan nan nan nan nan nan nan 7 8 10 10 10 11 10 11 12 13 15 17
nan nan nan nan nan nan nan nan nan nan nan nan nan nan 20 21 18 16 7 11 16 8 3 1 nan nan nan nan nan nan nan nan 6 7 9 14 15 13 12 9 13 13 13 16
nan nan nan nan nan nan nan nan nan nan nan nan nan nan nan 14 11 13 11 12 14 11 6 2 nan nan nan nan nan 3 6 nan 6 8 9 10 12 12 10 8 10 13 12 14
nan nan nan nan nan nan nan nan nan nan nan nan nan nan nan nan 8 5 4 10 11 11 10 7 6 nan nan nan nan 8 9 10 9 9 10 11 11 12 11 9 7 11 13 12
nan nan nan nan nan nan nan nan nan nan nan nan nan nan nan 13 14 12 9 4 10 9 10 9 8 8 5 nan nan 8 8 10 13 12 13 10 9 11 13 11 9 12 13 11
nan nan nan nan nan nan nan nan nan nan nan nan nan nan nan nan nan nan 8 10 9 9 11 8 2 4 1 3 nan 5 9 8 13 13 12 nan nan 10 9 9 8 8 10 12
nan nan nan nan nan nan nan nan nan nan nan nan nan nan nan nan nan nan nan nan nan 10 11 nan 9 5 2 1 2 3 5 10 12 14 nan nan nan nan 13 10 nan 7 7 7
nan nan nan nan nan nan nan nan nan nan nan nan nan nan nan nan nan nan nan nan nan nan nan 11 nan 10 7 2 1 2 4 nan 14 13 18 nan nan nan nan 12 11 9 7 7
nan nan nan nan nan nan nan nan nan nan nan nan nan nan nan nan nan nan nan nan nan nan nan 7 13 11 11 6 5 3 2 5 11 14 17 19 nan nan nan nan 12 11 10 8
nan nan nan nan nan nan nan nan nan nan nan nan nan nan nan nan nan nan nan nan nan nan nan nan 13 16 14 14 8 4 2 4 7 13 15 19 21 nan nan nan nan 12 13 12
nan nan nan nan nan nan nan nan nan nan nan nan nan nan nan nan nan nan nan nan nan 37 nan nan nan 19 20 18 15 8 6 3 7 10 16 16 20 nan nan nan nan nan 14 15
nan nan nan nan nan nan nan nan nan nan nan nan nan nan nan nan nan nan nan nan nan 43 45 45 nan nan 21 24 23 19 15 10 13 14 15 19 21 21 19 nan nan nan nan 17
nan nan nan nan nan nan nan nan nan nan nan nan nan nan nan nan nan nan nan nan nan 47 45 42 42 45 42 35 32 31 24 22 24 23 20 18 20 22 21 nan nan nan nan nan
nan nan nan nan nan nan nan nan nan nan nan nan nan nan nan nan nan nan nan nan nan nan nan 51 45 42 48 44 43 38 37 31 29 26 23 20 20 23 28 27 27 nan nan nan
nan nan nan nan nan nan nan nan nan nan nan nan nan nan nan nan nan nan nan nan nan nan nan nan 52 49 53 52 43 42 40 39 35 30 22 22 25 22 23 28 29 28 nan nan
nan nan nan nan nan nan nan nan nan nan nan nan nan nan nan nan nan nan nan nan nan 61 nan nan nan 52 52 55 51 43 43 43 39 34 32 27 28 22 22 25 31 29 26 29
nan nan nan nan nan nan nan nan nan nan nan nan nan nan nan nan nan nan nan nan nan nan nan nan nan 56 53 56 58 55 48 41 46 43 38 37 32 27 26 29 26 27 31 30
nan nan nan nan nan nan nan nan nan nan nan nan nan nan nan nan nan nan nan nan nan nan nan nan 63 nan 55 nan 57 61 61 57 59 57 56 57 42 34 29 25 26 27 32 33
nan nan nan nan nan nan nan nan nan nan nan nan nan nan nan nan nan nan nan nan nan nan nan nan 69 60 nan nan nan 62 60 59 66 56 53 54 55 47 33 28 26 28 31 32
nan nan nan nan nan nan nan nan nan nan nan nan nan nan nan nan nan nan nan nan nan nan nan nan nan 65 58 nan nan nan 61 nan 60 50 47 52 55 55 48 37 32 30 29 32
nan nan nan nan nan nan nan nan nan nan nan nan nan nan nan nan nan nan nan nan nan nan nan nan nan nan nan nan nan nan 65 61 59 56 39 nan 62 63 55 47 41 32 30 31
nan nan nan nan nan nan nan nan nan nan nan nan nan nan nan nan nan nan nan nan nan nan nan nan nan nan nan nan nan nan nan nan nan 55 nan nan nan nan 59 55 49 35 32 30
nan nan nan nan nan nan nan nan nan nan nan nan nan nan nan nan nan nan nan nan nan nan nan nan nan nan nan nan nan nan nan nan nan nan nan nan nan nan nan 56 47 40 35 28
nan nan nan nan nan nan nan nan nan nan nan nan nan nan nan nan nan nan nan nan nan nan nan nan nan nan nan nan nan nan nan nan nan nan nan nan nan nan nan nan 52 53 37 32
nan nan nan nan nan nan nan nan nan nan nan nan nan nan nan nan nan nan nan nan nan nan nan nan nan nan nan nan nan nan nan nan nan nan nan nan nan nan nan nan nan 58 44 39
Wind_Direction
nan nan nan nan nan nan nan nan nan nan nan nan nan nan nan 201 197 193 212 235 nan nan nan nan nan nan nan nan nan nan nan 152 162 158 166 153 128 118 107 103 92 87 86 76
nan nan nan nan nan nan nan nan nan nan nan nan nan nan 228 233 225 180 290 136 159 138 272 128 nan nan nan nan nan nan nan nan 158 161 165 157 142 131 129 119 111 97 90 86
nan nan nan nan nan nan nan nan nan nan nan nan nan nan 214 217 212 213 201 131 144 131 232 277 nan nan nan nan nan nan nan nan 161 156 183 179 169 164 153 146 127 106 89 85
nan nan nan nan nan nan nan nan nan nan nan nan nan nan nan 225 212 191 213 170 138 146 179 179 nan nan nan nan nan 188 183 nan 176 172 183 214 176 161 144 146 135 114 100 91
nan nan nan nan nan nan nan nan nan nan nan nan nan nan nan nan 212 158 214 190 159 138 171 178 186 nan nan nan nan 199 189 208 191 192 197 206 205 169 166 169 155 131 121 102
nan nan nan nan nan nan nan nan nan nan nan nan nan nan nan 228 207 174 206 241 164 146 158 187 207 206 176 nan nan 236 202 194 207 210 209 194 214 204 185 177 179 155 140 129
nan nan nan nan nan nan nan nan nan nan nan nan nan nan nan nan nan nan 203 195 169 157 180 166 259 235 203 63 nan 255 215 192 217 215 219 nan nan 223 210 185 189 191 161 141
nan nan nan nan nan nan nan nan nan nan nan nan nan nan nan nan nan nan nan nan nan 237 188 nan 160 200 124 104 279 237 205 202 211 223 nan nan nan nan 209 203 nan 205 180 152
nan nan nan nan nan nan nan nan nan nan nan nan nan nan nan nan nan nan nan nan nan nan nan 216 nan 189 180 203 313 351 305 nan 203 214 222 nan nan nan nan 218 209 210 221 183
nan nan nan nan nan nan nan nan nan nan nan nan nan nan nan nan nan nan nan nan nan nan nan 207 220 227 217 215 211 205 30 319 226 214 221 223 nan nan nan nan 223 214 227 222
nan nan nan nan nan nan nan nan nan nan nan nan nan nan nan nan nan nan nan nan nan nan nan nan 196 213 220 224 228 236 157 315 281 244 226 232 227 nan nan nan nan 228 225 235
nan nan nan nan nan nan nan nan nan nan nan nan nan nan nan nan nan nan nan nan nan 205 nan nan nan 203 224 230 232 249 242 234 271 254 238 233 233 nan nan nan nan nan 236 237
nan nan nan nan nan nan nan nan nan nan nan nan nan nan nan nan nan nan nan nan nan 216 215 212 nan nan 221 242 241 239 231 217 232 240 249 232 231 234 232 nan nan nan nan 235
nan nan nan nan nan nan nan nan nan nan nan nan nan nan nan nan nan nan nan nan nan 220 222 222 217 213 212 224 239 235 228 235 234 235 240 244 237 232 229 nan nan nan nan nan
nan nan nan nan nan nan nan nan nan nan nan nan nan nan nan nan nan nan nan nan nan nan nan 223 219 215 212 211 222 225 234 240 242 243 239 247 242 234 231 234 227 nan nan nan
nan nan nan nan nan nan nan nan nan nan nan nan nan nan nan nan nan nan nan nan nan nan nan nan 220 216 215 217 219 228 226 233 236 239 238 239 249 246 237 234 238 235 nan nan
nan nan nan nan nan nan nan nan nan nan nan nan nan nan nan nan nan nan nan nan nan 212 nan nan nan 214 214 216 221 229 232 226 230 237 234 235 246 247 241 236 235 242 238 240
nan nan nan nan nan nan nan nan nan nan nan nan nan nan nan nan nan nan nan nan nan nan nan nan nan 216 213 215 222 224 230 234 229 227 234 234 234 234 238 240 242 239 241 240
nan nan nan nan nan nan nan nan nan nan nan nan nan nan nan nan nan nan nan nan nan nan nan nan 216 nan 216 nan 225 227 231 230 228 225 227 227 225 229 236 245 242 241 240 240
nan nan nan nan nan nan nan nan nan nan nan nan nan nan nan nan nan nan nan nan nan nan nan nan 207 218 nan nan nan 233 232 233 235 221 223 224 223 219 229 233 240 244 243 242
nan nan nan nan nan nan nan nan nan nan nan nan nan nan nan nan nan nan nan nan nan nan nan nan nan 209 218 nan nan nan 234 nan 232 217 226 227 231 224 217 224 235 244 246 244
nan nan nan nan nan nan nan nan nan nan nan nan nan nan nan nan nan nan nan nan nan nan nan nan nan nan nan nan nan nan 231 231 230 226 233 nan 224 225 221 220 229 241 243 252
nan nan nan nan nan nan nan nan nan nan nan nan nan nan nan nan nan nan nan nan nan nan nan nan nan nan nan nan nan nan nan nan nan 235 nan nan nan nan 221 221 217 230 241 248
nan nan nan nan nan nan nan nan nan nan nan nan nan nan nan nan nan nan nan nan nan nan nan nan nan nan nan nan nan nan nan nan nan nan nan nan nan nan nan 224 214 226 235 243
nan nan nan nan nan nan nan nan nan nan nan nan nan nan nan nan nan nan nan nan nan nan nan nan nan nan nan nan nan nan nan nan nan nan nan nan nan nan nan nan 222 216 225 235
nan nan nan nan nan nan nan nan nan nan nan nan nan nan nan nan nan nan nan nan nan nan nan nan nan nan nan nan nan nan nan nan nan nan nan nan nan nan nan nan nan 219 217 221